[[{"header":{"parameterUnit":"m.s-1","parameterCategory":1,"la1":30.2991,"la2":30.254,"lo1":-89.0895,"lo2":-89.0444,"dy":0.0017,"dx":0.0017,"nx":28,"ny":28,"refTime":"2024-12-08T09:00:00:Z","depth":0,"parameterNumber":2,"parameterNumberName":"U-component_of_WINDS"},"data":[0,0,0,0,0,0,0,0,0,0,0,0,0,0,0,0,0,0,0,0,0,0,0,0,0,0,0,0,0,0,0,0,0,0,0,0,0,0,0,0,0,0,0,0,0,0,0,0,0,0,0,0,0,0,0,0,0,0,-2.3347,-2.3348,0,-2.3493,-2.3494,-2.3496,-2.358,-2.358,-2.358,-2.3581,-2.3729,-2.3733,-2.3737,0,0,0,0,0,0,0,0,0,0,0,0,0,-2.314,-2.3143,-2.3347,-2.3349,-2.335,-2.3492,-2.3494,-2.3496,-2.358,-2.358,-2.3581,-2.3581,-2.3728,-2.3732,-2.3737,0,0,0,0,0,0,0,0,0,0,0,0,0,-2.3252,-2.3144,-2.3346,-2.3409,-2.3416,-2.3492,-2.3494,-2.3497,-2.358,-2.358,-2.3581,-2.3581,-2.3727,-2.3732,-2.3737,-2.3762,0,0,-2.3754,-2.3757,0,0,0,0,0,0,0,0,-2.3245,-2.3259,-2.3398,-2.3405,-2.3413,-2.3519,-2.3476,-2.3586,-2.358,-2.3518,-2.3581,-2.3581,-2.3659,-2.367,-2.3696,-2.3769,-2.3775,-2.3755,-2.3758,-2.376,-2.3762,0,0,0,0,0,0,0,-2.3238,-2.3254,-2.3404,-2.34,-2.3409,-2.343,-2.3446,-2.3497,-2.3584,-2.3523,-2.3529,-2.3546,-2.3663,-2.3691,-2.37,-2.3777,-2.3755,-2.3759,-2.3763,-2.3765,-2.3876,-2.3876,0,0,0,0,0,0,-2.322,-2.3247,-2.34,-2.3409,-2.3329,-2.3433,-2.3451,-2.3484,-2.3583,-2.3599,-2.3545,-2.3549,-2.3681,-2.3694,-2.3706,-2.374,-2.376,-2.3765,-2.3769,-2.3876,-2.3876,-2.3875,0,0,0,0,0,0,-2.3215,-2.3233,-2.3394,-2.333,-2.3352,-2.3436,-2.3472,-2.3487,-2.3515,-2.36,-2.3616,-2.3557,-2.3682,-2.3698,-2.3747,-2.3746,-2.3768,-2.3773,-2.3877,-2.3876,-2.3876,-2.3808,0,0,0,0,0,0,-2.3209,-2.3231,-2.3241,-2.3329,-2.3355,-2.3433,-2.3472,-2.3489,-2.3524,-2.353,-2.3616,-2.363,-2.3684,-2.3738,-2.3752,-2.3754,-2.3777,-2.3877,-2.3876,-2.3876,-2.3811,-2.3805,-2.3801,0,0,0,0,0,-2.3201,-2.3216,-2.3241,-2.3259,-2.3369,-2.3433,-2.3447,-2.3508,-2.3523,-2.3534,-2.3589,-2.3628,-2.3744,-2.3743,-2.3759,-2.3762,-2.3877,-2.3877,-2.3876,-2.3813,-2.3807,-2.3801,0,0,0,0,0,0,-2.3126,-2.3229,-2.3258,-2.3302,-2.3358,-2.3447,-2.3462,-2.3499,-2.3552,-2.3556,-2.3629,-2.3648,-2.3689,-2.3731,-2.3728,-2.3791,-2.3815,-2.3817,-2.3762,-2.3756,-2.3751,-2.374,-2.3782,0,0,0,0,0,-2.3115,-2.3157,-2.3245,-2.3276,-2.3302,-2.3377,-2.3407,-2.3449,-2.351,-2.3534,-2.3592,-2.365,-2.3699,-2.373,-2.3781,-2.3818,-2.3837,-2.3828,-2.3823,-2.3818,-2.3819,-2.3841,-2.3838,-2.3873,-2.3873,-2.3873,0,0,-2.3091,-2.3153,-2.3176,-2.3262,-2.331,-2.3352,-2.3397,-2.344,-2.3471,-2.3541,-2.359,-2.3635,-2.3703,-2.3746,-2.3768,-2.3782,-2.3814,-2.3817,-2.3813,-2.3817,-2.384,-2.3836,-2.3833,-2.3872,-2.3872,-2.3873,0,0,-2.3071,-2.3122,-2.3152,-2.32,-2.3272,-2.3322,-2.3329,-2.3412,-2.3444,-2.3495,-2.3547,-2.3586,-2.367,-2.3717,-2.3751,-2.3747,-2.3784,-2.3761,-2.3734,-2.3754,-2.3752,-2.3749,-2.3746,-2.3745,-2.3762,-2.3762,-2.3762,0,-2.3033,-2.3098,-2.3163,-2.3203,-2.3239,-2.3303,-2.3334,-2.3377,-2.3462,-2.3485,-2.35,-2.3606,-2.3657,-2.3711,-2.3709,-2.3736,-2.3745,-2.3751,-2.3747,-2.3745,-2.3744,-2.3742,-2.3741,-2.3758,-2.3759,-2.3759,-2.3759,0,-2.3047,-2.3092,-2.3108,-2.3188,-2.3226,-2.3261,-2.333,-2.3361,-2.3399,-2.3447,-2.3497,-2.3561,-2.3624,-2.3641,-2.3679,-2.37,-2.3706,-2.3733,-2.3759,-2.3736,-2.3736,-2.3736,-2.3754,-2.3755,-2.3756,-2.3757,0,0,-2.2983,-2.3098,-2.3103,-2.3139,-2.3223,-2.3259,-2.3296,-2.3359,-2.3383,-2.3439,-2.3472,-2.3541,-2.3566,-2.3605,-2.3649,-2.3667,-2.3658,-2.3692,-2.3695,-2.3682,-2.3683,-2.3661,-2.3659,-2.3683,-2.3683,-2.3683,-2.3676,0,-2.2974,-2.3044,-2.3103,-2.3151,-2.3193,-2.3254,-2.3287,-2.3341,-2.3387,-2.3428,-2.3479,-2.3526,-2.3556,-2.358,-2.36,-2.3654,-2.3658,-2.3656,-2.3713,-2.3714,-2.3692,-2.3659,-2.3636,-2.3627,-2.3677,-2.3677,-2.3677,0,-2.2972,-2.3025,-2.3077,-2.3156,-2.3175,-2.3203,-2.3264,-2.3304,-2.3367,-2.3399,-2.3441,-2.3487,-2.3529,-2.3551,-2.3609,-2.3606,-2.3633,-2.3663,-2.3664,-2.3671,-2.3693,-2.3663,-2.3625,-2.3623,-2.3677,-2.3677,-2.3677,0,-2.2918,-2.3003,-2.3044,-2.3074,-2.3167,-2.3185,-2.3225,-2.3289,-2.3322,-2.3375,-2.3397,-2.3455,-2.3486,-2.3529,-2.3589,-2.36,-2.364,-2.3668,-2.3667,-2.3665,-2.3672,-2.367,-2.3636,-2.3691,-2.3691,-2.3691,-2.3691,0,-2.29,-2.2929,-2.3021,-2.3046,-2.3081,-2.3148,-2.318,-2.3225,-2.3281,-2.3316,-2.3373,-2.3404,-2.3482,-2.3523,-2.357,-2.361,-2.3624,-2.3651,-2.3662,-2.3645,-2.3641,-2.3662,-2.3664,-2.3691,-2.3691,-2.3691,-2.3691,0,-2.2845,-2.2908,-2.2957,-2.3041,-2.3063,-2.3084,-2.3156,-2.3183,-2.3231,-2.3275,-2.3289,-2.3365,-2.3416,-2.348,-2.3551,-2.3583,-2.3617,-2.3637,-2.3596,-2.3602,-2.3597,-2.3596,-2.3575,-2.3574,-2.363,-2.363,-2.3629,0,-2.2829,-2.2853,-2.2939,-2.2966,-2.3004,-2.3047,-2.3081,-2.3148,-2.3181,-2.3254,-2.3272,-2.3327,-2.3375,-2.3453,-2.3514,-2.3569,-2.3589,-2.3578,-2.3597,-2.3578,-2.3587,-2.3584,-2.3586,-2.3572,-2.3571,-2.357,-2.357,0,-2.2793,-2.2823,-2.2869,-2.2926,-2.2965,-2.3013,-2.3064,-2.3083,-2.3161,-2.3195,-2.3247,-2.3284,-2.3356,-2.341,-2.3472,-2.3513,-2.3554,-2.3563,-2.3565,-2.3547,-2.3521,-2.3533,-2.358,-2.3563,-2.3563,-2.3564,-2.3564,-2.3565,-2.2756,-2.2779,-2.2843,-2.2892,-2.2938,-2.2983,-2.3012,-2.3064,-2.3109,-2.3173,-2.321,-2.3261,-2.3323,-2.3411,-2.345,-2.349,-2.3505,-2.3509,-2.351,-2.3509,-2.3503,-2.3516,-2.3502,-2.3502,-2.3503,-2.3503,-2.3503,0,-2.2722,-2.2765,-2.281,-2.2879,-2.2917,-2.2953,-2.3011,-2.304,-2.3084,-2.3138,-2.3184,-2.3243,-2.3295,-2.3361,-2.3417,-2.3437,-2.3457,-2.3449,-2.3447,-2.3456,-2.3487,-2.3478,-2.3432,-2.3432,-2.3432,-2.3432,-2.3432,-2.3432,-2.2708,-2.2748,-2.2785,-2.2849,-2.2893,-2.2942,-2.2972,-2.3014,-2.3058,-2.3121,-2.3165,-2.3207,-2.3266,-2.3326,-2.3375,-2.3393,-2.3411,-2.3397,-2.342,-2.3448,-2.3454,-2.346,-2.3452,-2.3401,-2.3401,-2.3386,-2.3386,-2.3386]},{"header":{"parameterUnit":"m.s-1","parameterCategory":1,"la1":30.2991,"la2":30.254,"lo1":-89.0895,"lo2":-89.0444,"dy":0.0017,"dx":0.0017,"nx":28,"ny":28,"refTime":"2024-12-08T09:00:00:Z","depth":0,"parameterNumber":3,"parameterNumberName":"V-component_of_WINDS"},"data":[0,0,0,0,0,0,0,0,0,0,0,0,0,0,0,0,0,0,0,0,0,0,0,0,0,0,0,0,0,0,0,0,0,0,0,0,0,0,0,0,0,0,0,0,0,0,0,0,0,0,0,0,0,0,0,0,0,0,4.7625,4.7625,0,4.7685,4.7686,4.7687,4.7629,4.7627,4.7624,4.7622,4.7685,4.7688,4.7692,0,0,0,0,0,0,0,0,0,0,0,0,0,4.7462,4.7465,4.7624,4.7625,4.7626,4.7685,4.7686,4.7687,4.7629,4.7627,4.7624,4.7621,4.7683,4.7688,4.7693,0,0,0,0,0,0,0,0,0,0,0,0,0,4.7529,4.7466,4.7624,4.7604,4.7603,4.7685,4.7686,4.7687,4.763,4.7626,4.7623,4.762,4.7682,4.7688,4.7693,4.7798,0,0,4.7711,4.7713,0,0,0,0,0,0,0,0,4.7525,4.7535,4.7607,4.7606,4.7605,4.7646,4.7651,4.7724,4.7631,4.762,4.7622,4.7618,4.7675,4.7681,4.77,4.7801,4.7803,4.7711,4.7715,4.7717,4.7719,0,0,0,0,0,0,0,4.752,4.7532,4.7648,4.7608,4.7607,4.7594,4.7599,4.7665,4.7666,4.762,4.7616,4.7624,4.7673,4.7694,4.7701,4.7804,4.7711,4.7716,4.772,4.7722,4.7999,4.8003,0,0,0,0,0,0,4.7518,4.7528,4.7646,4.765,4.7556,4.7599,4.7606,4.7636,4.7665,4.7666,4.7627,4.7622,4.7686,4.7694,4.7703,4.7831,4.7717,4.7722,4.7726,4.7995,4.8,4.8004,0,0,0,0,0,0,4.7514,4.7529,4.7644,4.7588,4.7602,4.7606,4.7641,4.7639,4.766,4.767,4.767,4.7648,4.7684,4.7695,4.7776,4.7832,4.7725,4.773,4.799,4.7997,4.8002,4.8085,0,0,0,0,0,0,4.751,4.7528,4.7567,4.759,4.7605,4.7715,4.7644,4.7643,4.767,4.7663,4.769,4.7691,4.7682,4.7767,4.7781,4.7838,4.7735,4.7985,4.7993,4.8,4.8077,4.8093,4.8107,0,0,0,0,0,4.7504,4.7587,4.7569,4.7583,4.7654,4.7718,4.7727,4.7715,4.7675,4.7715,4.7722,4.769,4.7823,4.7776,4.7791,4.785,4.7982,4.7991,4.8,4.8071,4.809,4.8106,0,0,0,0,0,0,4.7569,4.7589,4.757,4.7661,4.7689,4.7709,4.7758,4.7735,4.7775,4.7766,4.775,4.7756,4.7843,4.7854,4.7802,4.7956,4.7896,4.7908,4.7945,4.7963,4.7978,4.7974,4.7739,0,0,0,0,0,4.7594,4.7645,4.7659,4.7739,4.7754,4.7754,4.7782,4.7771,4.7798,4.7809,4.7822,4.7851,4.7899,4.7932,4.7976,4.8078,4.8086,4.8127,4.8141,4.8153,4.8165,4.8224,4.8244,4.8033,4.8033,4.8033,0,0,4.7647,4.7664,4.7696,4.7753,4.7773,4.7827,4.7764,4.7823,4.7864,4.7818,4.7897,4.7907,4.7938,4.8032,4.8073,4.8044,4.8225,4.8165,4.8174,4.8179,4.8235,4.8255,4.8273,4.8039,4.8038,4.8037,0,0,4.777,4.7787,4.7857,4.7879,4.7911,4.7911,4.7928,4.7952,4.7958,4.8036,4.8004,4.8053,4.8136,4.8161,4.8184,4.8322,4.8295,4.8336,4.8413,4.8471,4.8488,4.8503,4.8556,4.8574,4.8347,4.8348,4.8348,0,4.7831,4.7911,4.7896,4.7959,4.7987,4.7949,4.8022,4.8044,4.8088,4.8109,4.8075,4.8182,4.8199,4.83,4.8334,4.8353,4.8374,4.8334,4.8487,4.8501,4.8515,4.8565,4.8585,4.8353,4.8352,4.8352,4.8351,0,4.7987,4.8043,4.8096,4.8142,4.8175,4.8243,4.824,4.8275,4.8262,4.8266,4.8349,4.8369,4.842,4.8442,4.8429,4.8543,4.8524,4.8489,4.8429,4.854,4.8588,4.8606,4.836,4.8358,4.8357,4.8355,0,0,4.8152,4.8191,4.8212,4.8234,4.8267,4.8311,4.8378,4.8428,4.8461,4.8493,4.8551,4.8624,4.8593,4.862,4.8609,4.866,4.8773,4.8619,4.8619,4.865,4.8904,4.8933,4.8955,4.8755,4.8758,4.8761,4.8903,0,4.828,4.8397,4.8387,4.8498,4.8552,4.8519,4.8578,4.8606,4.8612,4.866,4.8667,4.8721,4.8674,4.869,4.8739,4.8749,4.8824,4.8738,4.8811,4.8814,4.8808,4.8979,4.9009,4.9141,4.8921,4.8924,4.8926,0,4.8444,4.8485,4.8602,4.8631,4.8654,4.8707,4.8754,4.8799,4.8832,4.8833,4.8865,4.8847,4.8917,4.8855,4.8953,4.8895,4.8925,4.8935,4.8939,4.8948,4.8879,4.8996,4.9183,4.9204,4.8954,4.8952,4.895,0,4.8558,4.8642,4.8724,4.8743,4.8778,4.8817,4.8834,4.8862,4.8895,4.8936,4.8958,4.9006,4.9034,4.9073,4.907,4.9024,4.9171,4.9108,4.9177,4.9178,4.9211,4.921,4.941,4.9225,4.9225,4.9225,4.9224,0,4.8703,4.8777,4.8776,4.8827,4.891,4.8899,4.8981,4.8993,4.902,4.9075,4.9047,4.9099,4.909,4.9142,4.9139,4.9224,4.9235,4.9241,4.924,4.9245,4.9245,4.9266,4.9258,4.923,4.9229,4.9228,4.9227,0,4.8845,4.8847,4.8935,4.8962,4.8971,4.9031,4.9055,4.9104,4.9109,4.9178,4.9194,4.9202,4.9263,4.9263,4.9331,4.933,4.9435,4.9421,4.9424,4.9423,4.9494,4.9489,4.9716,4.9748,4.954,4.9542,4.9544,0,4.8939,4.8996,4.903,4.9065,4.9084,4.914,4.9173,4.9165,4.9202,4.9245,4.929,4.9348,4.9394,4.9493,4.9506,4.956,4.955,4.9626,4.9557,4.9563,4.9556,4.9554,4.9561,4.964,4.9642,4.9644,4.9646,0,4.9108,4.9107,4.9156,4.9207,4.9248,4.9288,4.9324,4.9354,4.935,4.9393,4.9455,4.9491,4.9563,4.9622,4.9675,4.9693,4.9671,4.9667,4.9687,4.9694,4.9695,4.97,4.9465,4.9662,4.9661,4.9659,4.9658,4.9658,4.9231,4.9282,4.9315,4.9372,4.9399,4.9434,4.9484,4.9496,4.9547,4.9606,4.9598,4.9668,4.9703,4.9771,4.9794,4.985,4.9824,4.9851,4.9859,4.9867,4.9877,4.9684,4.9859,4.9859,4.9858,4.9858,4.9857,0,4.9402,4.9422,4.9474,4.9528,4.9574,4.9548,4.9588,4.9628,4.9691,4.9725,4.9772,4.9845,4.9904,4.9922,4.998,5.0021,5.0013,5.0037,5.0036,5.0041,4.9895,4.9874,5.0043,5.0043,5.0043,5.0043,5.0043,5.0043,4.9496,4.9582,4.9585,4.9685,4.9704,4.9774,4.98,4.9834,4.9861,4.9945,4.9994,5.0006,5.0035,5.0094,5.0148,5.0152,5.0176,5.0206,5.0206,5.0069,5.0051,5.0033,5.0014,5.021,5.021,5.0348,5.035,5.035]}]]